Simultaneous Nadir Overpasses (SNOs) Predictions

Prediction of SNOs between GOES-17 and NOAA-20 Satellite Orbit:

Table of predicted SNOs for the next 14.0 days since TLE Epoch: 8/30/2024
Index Date Time (GOES-17) GOES-17 Lat,Lon NOAA-20 Lat,Lon Distance(km) Time Diff (sec)
1 09/01/2024 08:38:14 -0.01,-104.69 0.73,-108.11 389.37 80
2 09/02/2024 08:16:48 -0.01,-104.69 -0.26,-103.57 127.29 80
3 09/03/2024 20:38:42 0.01,-104.70 -0.91,-108.87 474.77 80
4 09/04/2024 20:22:36 0.01,-104.71 0.09,-104.33 42.41 80
5 09/07/2024 08:25:35 -0.01,-104.69 0.08,-105.06 41.90 80
6 09/08/2024 08:04:08 -0.01,-104.69 -0.93,-100.52 474.82 80
7 09/09/2024 20:26:02 0.02,-104.70 -0.21,-105.83 127.66 80
8 09/10/2024 20:09:56 0.02,-104.70 0.80,-101.29 389.18 80
9 09/12/2024 08:31:40 -0.02,-104.69 0.42,-106.54 212.45 80
10 09/13/2024 08:10:14 -0.03,-104.68 -0.60,-102.01 303.96 80
